Weather History for KSUW - January, 2013

Change the Weather History Date:

Tuesday, January 29, 2013

  Actual Average Record
Temperature  
Mean Temperature 28 °F -  
Max Temperature 34 °F 21 °F 41 °F (1976)
Min Temperature 21 °F 1 °F -37 °F (1951)
Degree Days  
Heating Degree Days 36    
Moisture  
Dew Point 27 °F    
Average Humidity 87    
Maximum Humidity 100    
Minimum Humidity 67    
Precipitation  
Precipitation 0.01 in - - ()
Sea Level Pressure  
Sea Level Pressure 29.63 in    
Wind  
Wind Speed 6 mph (NNW)    
Max Wind Speed 20 mph    
Max Gust Speed 25 mph    
Visibility 8 miles    
Events Snow    
Averages and records for this station are not official NWS values.
T = Trace of Precipitation, MM = Missing Value Source: NWS Daily Summary

Daily Weather History Graph

Daily Weather History Graph

Search for Another Location

Airport or City:

Trip Planner

Search our weather history database for the weather conditions in past years. The results will help you decide how hot, cold, wet, or windy it might be!

Date:

Astronomy

Jan. 29, 2013 Rise Set
Actual Time 7:35 AM CST 5:07 PM CST
Civil Twilight 7:03 AM CST 5:40 PM CST
Nautical Twilight 6:26 AM CST 6:17 PM CST
Astronomical Twilight 5:51 AM CST 6:52 PM CST
Moon 8:19 PM CST (1/29) 8:20 AM CST (1/29)
Length of Visible Light 10h 37m
Length of Day
9h 32m
Waning Gibbous, 93% of the Moon is Illuminated
Jan 29
Waning Gibbous
Feb 3
Last Quarter
Feb 10
New
Feb 17
First Quarter
Feb 25
Full

Hourly Weather History & Observations

Time (CST) Temp. Windchill Dew Point Humidity Pressure Visibility Wind Dir Wind Speed Gust Speed Precip Events Conditions
12:15 AM 32.0 °F 26.4 °F 29.7 °F 91% 29.68 in 10.0 mi East 5.8 mph - N/A   Overcast
12:35 AM 31.8 °F 26.2 °F 29.3 °F 90% 29.68 in 10.0 mi East 5.8 mph - N/A   Overcast
12:55 AM 31.6 °F 27.0 °F 30.0 °F 94% 29.66 in 10.0 mi East 4.6 mph - N/A   Overcast
1:15 AM 31.1 °F 27.7 °F 30.2 °F 96% 29.66 in 4.0 mi East 3.5 mph - N/A   Overcast
1:35 AM 31.1 °F - 30.7 °F 99% 29.65 in 2.0 mi Calm Calm - N/A   Overcast
1:55 AM 31.3 °F 27.9 °F 30.9 °F 99% 29.64 in 3.0 mi East 3.5 mph - N/A   Overcast
2:15 AM 31.1 °F 26.4 °F 30.9 °F 99% 29.62 in 4.0 mi ENE 4.6 mph - N/A   Overcast
2:35 AM 31.1 °F 26.4 °F 30.7 °F 99% 29.62 in 3.0 mi East 4.6 mph - N/A   Overcast
2:55 AM 31.1 °F 25.4 °F 30.7 °F 99% 29.59 in 3.0 mi East 5.8 mph - N/A   Overcast
3:15 AM 31.1 °F 27.7 °F 30.7 °F 99% 29.59 in 3.0 mi East 3.5 mph - N/A   Overcast
3:35 AM 31.1 °F 25.4 °F 30.7 °F 99% 29.58 in 3.0 mi East 5.8 mph - N/A   Overcast
3:55 AM 31.1 °F 26.4 °F 30.7 °F 99% 29.56 in 3.0 mi East 4.6 mph - N/A   Overcast
4:15 AM 30.9 °F 27.5 °F 30.7 °F 99% 29.56 in 4.0 mi East 3.5 mph - N/A   Overcast
4:35 AM 31.1 °F - 30.7 °F 99% 29.57 in 4.0 mi Calm Calm - N/A   Overcast
4:55 AM 31.1 °F - 30.9 °F 99% 29.56 in 1.8 mi Calm Calm - N/A   Overcast
5:15 AM 31.1 °F - 31.1 °F 100% 29.55 in 1.8 mi Calm Calm - N/A   Overcast
5:35 AM 31.1 °F 26.4 °F 31.1 °F 100% 29.52 in 2.0 mi North 4.6 mph - N/A   Overcast
5:55 AM 31.1 °F - 31.1 °F 100% 29.54 in 3.0 mi Calm Calm - 0.01 in   Overcast
6:15 AM 31.1 °F - 31.1 °F 100% 29.54 in 3.0 mi Calm Calm - N/A Snow Light Snow
6:35 AM 31.1 °F - 31.1 °F 100% 29.54 in 2.0 mi Calm Calm - N/A Snow Light Snow
6:55 AM 31.1 °F 26.4 °F 31.1 °F 100% 29.54 in 2.0 mi WNW 4.6 mph - N/A Snow Light Snow
7:15 AM 31.1 °F - 31.1 °F 100% 29.52 in 3.0 mi Calm Calm - N/A   Overcast
7:35 AM 31.1 °F - 31.1 °F 100% 29.53 in 3.0 mi Calm Calm - N/A   Overcast
7:55 AM 31.1 °F 27.7 °F 30.9 °F 99% 29.54 in 2.0 mi WSW 3.5 mph - N/A   Overcast
8:15 AM 30.9 °F - 30.7 °F 99% 29.53 in 2.0 mi Calm Calm - N/A   Overcast
8:35 AM 31.1 °F - 31.1 °F 100% 29.53 in 2.0 mi Calm Calm - N/A   Overcast
8:55 AM 31.1 °F 27.7 °F 31.1 °F 100% 29.56 in 2.5 mi WSW 3.5 mph - N/A   Overcast
9:15 AM 31.5 °F 25.8 °F 31.1 °F 99% 29.56 in 4.0 mi West 5.8 mph - N/A   Overcast
9:35 AM 31.8 °F 27.3 °F 31.1 °F 97% 29.55 in 7.0 mi West 4.6 mph - N/A   Overcast
9:55 AM 32.0 °F 27.5 °F 31.1 °F 96% 29.55 in 10.0 mi West 4.6 mph - N/A   Overcast
10:15 AM 32.0 °F 27.5 °F 31.1 °F 96% 29.56 in 10.0 mi West 4.6 mph - N/A   Overcast
10:35 AM 32.4 °F 25.3 °F 30.9 °F 94% 29.58 in 10.0 mi West 8.1 mph - N/A   Overcast
10:55 AM 32.9 °F 24.1 °F 30.2 °F 90% 29.57 in 10.0 mi NNW 11.5 mph - N/A   Overcast
11:15 AM 33.3 °F 21.8 °F 29.3 °F 85% 29.57 in 10.0 mi NNW 19.6 mph 25.3 mph N/A   Overcast
11:35 AM 33.8 °F 24.3 °F 29.7 °F 85% 29.59 in 10.0 mi NW 13.8 mph - N/A   Overcast
11:55 AM 34.9 °F 27.7 °F 29.7 °F 81% 29.60 in 10.0 mi NW 9.2 mph - N/A   Overcast
12:15 PM 34.7 °F 26.9 °F 29.3 °F 81% 29.61 in 10.0 mi WNW 10.4 mph - N/A   Overcast
12:35 PM 34.9 °F 27.7 °F 29.5 °F 81% 29.61 in 10.0 mi NW 9.2 mph 16.1 mph N/A   Overcast
12:55 PM 34.9 °F 28.3 °F 30.0 °F 82% 29.60 in 10.0 mi NW 8.1 mph - N/A   Overcast
1:15 PM 34.7 °F 24.7 °F 29.8 °F 82% 29.60 in 10.0 mi NW 16.1 mph 19.6 mph N/A   Overcast
1:35 PM 34.7 °F 26.4 °F 29.1 °F 80% 29.60 in 10.0 mi NW 11.5 mph 17.3 mph N/A   Overcast
1:55 PM 34.2 °F 24.8 °F 28.9 °F 81% 29.62 in 10.0 mi NW 13.8 mph 17.3 mph N/A   Overcast
2:15 PM 33.8 °F 25.3 °F 27.5 °F 78% 29.62 in 10.0 mi North 11.5 mph 17.3 mph N/A   Overcast
2:35 PM 33.4 °F 28.1 °F 27.5 °F 79% 29.62 in 10.0 mi NNW 5.8 mph - N/A   Overcast
2:55 PM 33.1 °F 24.9 °F 28.0 °F 82% 29.63 in 10.0 mi NNW 10.4 mph - N/A   Overcast
3:15 PM 32.9 °F 24.7 °F 27.3 °F 80% 29.64 in 10.0 mi North 10.4 mph 16.1 mph N/A   Overcast
3:35 PM 32.0 °F 22.5 °F 28.2 °F 86% 29.64 in 10.0 mi NNW 12.7 mph - N/A   Overcast
3:55 PM 31.8 °F 23.9 °F 26.6 °F 81% 29.66 in 10.0 mi North 9.2 mph - N/A   Overcast
4:15 PM 31.1 °F 21.9 °F 26.1 °F 82% 29.68 in 10.0 mi NNW 11.5 mph - N/A   Overcast
4:35 PM 30.9 °F 21.7 °F 25.9 °F 82% 29.69 in 10.0 mi NW 11.5 mph 16.1 mph N/A   Overcast
4:55 PM 30.9 °F 20.2 °F 25.7 °F 81% 29.68 in 10.0 mi NNW 15.0 mph - N/A   Overcast
5:15 PM 30.2 °F 18.9 °F 24.8 °F 80% 29.69 in 10.0 mi NNW 16.1 mph 19.6 mph N/A   Overcast
5:35 PM 30.2 °F 22.6 °F 23.4 °F 76% 29.69 in 10.0 mi North 8.1 mph - N/A   Overcast
5:55 PM 30.2 °F 20.8 °F 23.5 °F 76% 29.68 in 10.0 mi North 11.5 mph 16.1 mph N/A   Overcast
6:15 PM 30.2 °F 23.4 °F 23.4 °F 76% 29.69 in 10.0 mi NNW 6.9 mph - N/A   Overcast
6:35 PM 30.2 °F 20.8 °F 22.8 °F 74% 29.69 in 10.0 mi NNW 11.5 mph - N/A   Overcast
6:55 PM 30.2 °F 24.3 °F 22.6 °F 73% 29.71 in 10.0 mi NNW 5.8 mph - N/A   Overcast
7:15 PM 30.2 °F 24.3 °F 22.1 °F 72% 29.72 in 10.0 mi NNW 5.8 mph - N/A   Overcast
7:35 PM 30.2 °F 21.9 °F 22.6 °F 73% 29.73 in 10.0 mi NNW 9.2 mph - N/A   Overcast
7:55 PM 30.0 °F 22.4 °F 22.1 °F 72% 29.71 in 10.0 mi NNW 8.1 mph - N/A   Overcast
8:15 PM 29.8 °F 21.5 °F 21.7 °F 72% 29.69 in 10.0 mi NNW 9.2 mph - N/A   Overcast
8:35 PM 29.8 °F 21.5 °F 21.2 °F 70% 29.72 in 10.0 mi North 9.2 mph - N/A   Overcast
8:55 PM 29.5 °F 21.8 °F 20.1 °F 68% 29.73 in 10.0 mi North 8.1 mph 17.3 mph N/A   Overcast
9:15 PM 29.1 °F 20.6 °F 19.4 °F 67% 29.74 in 10.0 mi North 9.2 mph - N/A   Overcast
9:35 PM 28.8 °F 20.9 °F 19.2 °F 68% 29.73 in 10.0 mi North 8.1 mph - N/A   Overcast
9:55 PM 27.9 °F 17.8 °F 19.0 °F 69% 29.72 in 10.0 mi North 11.5 mph 19.6 mph N/A   Overcast
10:15 PM 26.6 °F 16.8 °F 19.0 °F 73% 29.71 in 10.0 mi NNW 10.4 mph 20.7 mph N/A   Overcast
10:35 PM 25.0 °F 14.2 °F 18.1 °F 75% 29.75 in 10.0 mi NNW 11.5 mph - N/A   Scattered Clouds
10:55 PM 24.8 °F 15.3 °F 17.6 °F 74% 29.77 in 10.0 mi NNW 9.2 mph - N/A   Clear
11:15 PM 24.3 °F 13.9 °F 17.6 °F 76% 29.76 in 10.0 mi NNW 10.4 mph - N/A   Clear
11:35 PM 23.4 °F 12.2 °F 17.2 °F 77% 29.75 in 10.0 mi NNW 11.5 mph - N/A   Clear
11:55 PM 21.6 °F 12.1 °F 16.3 °F 80% 29.76 in 10.0 mi NW 8.1 mph - N/A   Clear